Weather in Ikey

Russia / Irkutsk Oblast     54°11′22″N   100°04′40″E
temp.,
°C
wind,
m/s
gust,
m/s
humid.,
%
clouds,
%
prec.,
mm/h
press.,
hPa
HPBL,
m
14 may, fri
fri1423:00+3se22450 0.0 102012
02:000se22530 0.0 102021
05:00−1se22570 0.0 102015
08:00+5se36410 0.0 1019285
11:00+11se45264 0.0 10151046
14:00+15se33195 0.0 10121562
17:00+17ese231930 0.0 10101343
20:00+13se4835100 0.0 1010185
15 may, sat
sat1523:00+8nw7145364 0.0 1012471
02:00+6nw51279100 0.0 1017811
05:00+5wnw4116571 0.3 10201252
08:00+6w41157100 0.3 10201117
11:00+10w51244100 0.0 10192096
14:00+12w6105295 0.3 10161567
17:00+13nw51156100 0.5 10141676
20:00+11w51471100 1.3 10161015
16 may, sun
sun1623:00+11wnw3967100 0.0 1015443
02:00+11w51370100 0.3 1014745
05:00+10wsw51372100 0.3 1014738
08:00+11nw2672100 0.4 1012348
11:00+11wnw61479100 2.3 10131416
14:00+11w3982100 3.1 1013718
17:00+12nw2677100 0.5 1011493
20:00+11sse2387100 0.6 100983
17 may, mon
mon1723:00+9e2293100 0.3 100641
02:00+9w1294100 0.8 100443
05:00+6nnw51193100 1.0 1008620
08:00+6nnw4991100 1.0 1011732
11:00+6nnw3682100 0.0 1012530
14:00+6nw2383100 0.1 1012497
17:00+7wnw1285100 0.0 1012352
20:00+7e0185100 0.0 1011198
18 may, tue
tue1823:00+6nw1191100 0.1 101125
02:00+6nnw3694100 1.4 1011490
05:00+5wnw2596100 1.2 1011418
08:00+6w1593100 2.2 1011773
11:00+5ne1292100 2.3 1010494
14:00+5ne1292100 4.2 1008461
17:00+5se2297100 4.4 1006182
20:00+5wsw2295100 10.8 1006657